Time,TemperatureF,DewpointF,PressureIn,WindDirection,WindDirectionDegrees,WindSpeedMPH,WindSpeedGustMPH,Humidity,HourlyPrecipIn,Conditions,Clouds,dailyrainin,SoftwareType,DateUTC
2013-09-26 00:06:00,60.2,54.0,29.82,SSE,149,0.0,0.0,80,0.00,,,0.00,weatherlink.com 1.10,2013-09-26 05:06:00,
2013-09-26 00:21:00,59.8,54.0,29.82,SE,142,0.0,0.0,81,0.00,,,0.00,weatherlink.com 1.10,2013-09-26 05:21:00,
2013-09-26 00:36:00,59.2,54.0,29.83,SSE,166,0.0,0.0,82,0.00,,,0.00,weatherlink.com 1.10,2013-09-26 05:36:00,
2013-09-26 00:51:00,58.9,54.0,29.82,SSE,165,0.0,0.0,83,0.00,,,0.00,weatherlink.com 1.10,2013-09-26 05:51:00,
2013-09-26 01:06:00,58.7,54.0,29.83,South,173,0.0,0.0,83,0.00,,,0.00,weatherlink.com 1.10,2013-09-26 06:06:00,
2013-09-26 01:21:00,58.6,54.0,29.83,SSE,162,0.0,0.0,83,0.00,,,0.00,weatherlink.com 1.10,2013-09-26 06:21:00,
2013-09-26 01:36:00,58.5,53.0,29.83,SSE,163,0.0,0.0,83,0.00,,,0.00,weatherlink.com 1.10,2013-09-26 06:36:00,
2013-09-26 01:51:00,58.2,53.0,29.84,SE,146,0.0,0.0,84,0.00,,,0.00,weatherlink.com 1.10,2013-09-26 06:51:00,
2013-09-26 02:06:00,58.1,53.0,29.83,SSW,198,0.0,0.0,84,0.00,,,0.00,weatherlink.com 1.10,2013-09-26 07:06:00,
2013-09-26 02:21:00,58.0,53.0,29.83,SSE,162,0.0,0.0,84,0.00,,,0.00,weatherlink.com 1.10,2013-09-26 07:21:00,
2013-09-26 02:36:00,57.8,53.0,29.83,South,173,0.0,0.0,84,0.00,,,0.00,weatherlink.com 1.10,2013-09-26 07:36:00,
2013-09-26 02:51:00,57.7,53.0,29.82,South,188,0.0,0.0,85,0.00,,,0.00,weatherlink.com 1.10,2013-09-26 07:51:00,
2013-09-26 03:06:00,57.8,53.0,29.82,SSE,154,0.0,0.0,84,0.00,,,0.00,weatherlink.com 1.10,2013-09-26 08:06:00,
2013-09-26 03:21:00,58.1,53.0,29.82,South,176,0.0,0.0,83,0.00,,,0.00,weatherlink.com 1.10,2013-09-26 08:21:00,
2013-09-26 03:36:00,57.8,53.0,29.82,SSW,200,0.0,0.0,84,0.00,,,0.00,weatherlink.com 1.10,2013-09-26 08:36:00,
2013-09-26 03:51:00,57.8,53.0,29.81,SSW,208,0.0,0.0,84,0.00,,,0.00,weatherlink.com 1.10,2013-09-26 08:51:00,
2013-09-26 04:06:00,58.0,53.0,29.81,ENE,71,0.0,0.0,84,0.00,,,0.00,weatherlink.com 1.10,2013-09-26 09:06:00,
2013-09-26 04:21:00,57.9,54.0,29.81,South,177,0.0,0.0,85,0.00,,,0.00,weatherlink.com 1.10,2013-09-26 09:21:00,
2013-09-26 04:36:00,57.8,53.0,29.82,South,178,0.0,0.0,85,0.00,,,0.00,weatherlink.com 1.10,2013-09-26 09:36:00,
2013-09-26 04:51:00,57.7,54.0,29.82,SE,140,0.0,0.0,86,0.00,,,0.00,weatherlink.com 1.10,2013-09-26 09:51:00,
2013-09-26 05:06:00,57.6,54.0,29.82,South,173,0.0,0.0,86,0.00,,,0.00,weatherlink.com 1.10,2013-09-26 10:06:00,
2013-09-26 05:21:00,57.6,54.0,29.81,SSW,198,0.0,0.0,87,0.00,,,0.00,weatherlink.com 1.10,2013-09-26 10:21:00,
2013-09-26 05:36:00,57.5,54.0,29.81,South,189,0.0,0.0,87,0.00,,,0.00,weatherlink.com 1.10,2013-09-26 10:36:00,
2013-09-26 05:51:00,57.4,54.0,29.81,SSE,167,0.0,0.0,87,0.00,,,0.00,weatherlink.com 1.10,2013-09-26 10:51:00,
2013-09-26 06:06:00,57.5,54.0,29.82,SSE,163,0.0,0.0,88,0.00,,,0.00,weatherlink.com 1.10,2013-09-26 11:06:00,
2013-09-26 06:21:00,57.6,54.0,29.82,SSW,196,0.0,0.0,88,0.00,,,0.00,weatherlink.com 1.10,2013-09-26 11:21:00,
2013-09-26 06:36:00,57.7,54.0,29.82,SSE,164,0.0,0.0,88,0.00,,,0.00,weatherlink.com 1.10,2013-09-26 11:36:00,
2013-09-26 06:51:00,57.5,54.0,29.82,South,176,0.0,0.0,88,0.00,,,0.00,weatherlink.com 1.10,2013-09-26 11:51:00,
2013-09-26 07:06:00,57.3,54.0,29.82,South,169,0.0,0.0,89,0.00,,,0.00,weatherlink.com 1.10,2013-09-26 12:06:00,
2013-09-26 07:21:00,57.1,54.0,29.83,SSE,156,0.0,0.0,89,0.00,,,0.00,weatherlink.com 1.10,2013-09-26 12:21:00,
2013-09-26 07:36:00,57.1,54.0,29.83,South,171,0.0,0.0,89,0.00,,,0.00,weatherlink.com 1.10,2013-09-26 12:36:00,
2013-09-26 07:52:00,57.4,54.0,29.84,South,186,0.0,0.0,88,0.00,,,0.00,weatherlink.com 1.10,2013-09-26 12:52:00,
2013-09-26 08:07:00,57.9,54.0,29.84,SSW,198,0.0,0.0,87,0.00,,,0.00,weatherlink.com 1.10,2013-09-26 13:07:00,
2013-09-26 08:22:00,58.4,54.0,29.84,SSE,167,0.0,0.0,85,0.00,,,0.00,weatherlink.com 1.10,2013-09-26 13:22:00,
2013-09-26 08:37:00,59.1,54.0,29.84,SSW,204,0.0,0.0,84,0.00,,,0.00,weatherlink.com 1.10,2013-09-26 13:37:00,
2013-09-26 08:52:00,59.8,54.0,29.84,South,184,0.0,0.0,82,0.00,,,0.00,weatherlink.com 1.10,2013-09-26 13:52:00,
2013-09-26 09:07:00,60.9,55.0,29.84,South,190,0.0,0.0,82,0.00,,,0.00,weatherlink.com 1.10,2013-09-26 14:07:00,
2013-09-26 09:22:00,62.4,56.0,29.85,SW,223,0.0,0.0,80,0.00,,,0.00,weatherlink.com 1.10,2013-09-26 14:22:00,
2013-09-26 09:37:00,64.0,57.0,29.84,SSE,158,0.0,0.0,78,0.00,,,0.00,weatherlink.com 1.10,2013-09-26 14:37:00,
2013-09-26 09:52:00,65.6,58.0,29.84,South,180,0.0,0.0,76,0.00,,,0.00,weatherlink.com 1.10,2013-09-26 14:52:00,
2013-09-26 10:07:00,66.5,58.0,29.84,SSE,163,0.0,0.0,75,0.00,,,0.00,weatherlink.com 1.10,2013-09-26 15:07:00,
2013-09-26 10:22:00,67.8,59.0,29.84,SW,214,0.0,0.0,74,0.00,,,0.00,weatherlink.com 1.10,2013-09-26 15:22:00,
2013-09-26 10:37:00,69.5,60.0,29.83,SSW,194,0.0,0.0,72,0.00,,,0.00,weatherlink.com 1.10,2013-09-26 15:37:00,
2013-09-26 10:52:00,71.0,61.0,29.83,South,182,0.0,0.0,71,0.00,,,0.00,weatherlink.com 1.10,2013-09-26 15:52:00,
2013-09-26 11:07:00,71.7,61.0,29.83,South,181,0.0,0.0,69,0.00,,,0.00,weatherlink.com 1.10,2013-09-26 16:07:00,
2013-09-26 11:22:00,72.7,62.0,29.83,South,171,0.0,0.0,68,0.00,,,0.00,weatherlink.com 1.10,2013-09-26 16:22:00,
2013-09-26 11:37:00,74.3,62.0,29.82,South,175,0.0,0.0,65,0.00,,,0.00,weatherlink.com 1.10,2013-09-26 16:37:00,
2013-09-26 11:52:00,75.1,62.0,29.82,SSW,198,0.0,0.0,63,0.00,,,0.00,weatherlink.com 1.10,2013-09-26 16:52:00,
2013-09-26 12:07:00,75.4,61.0,29.81,SW,221,0.0,0.0,61,0.00,,,0.00,weatherlink.com 1.10,2013-09-26 17:07:00,
2013-09-26 12:22:00,76.6,61.0,29.80,SW,214,0.0,0.0,58,0.00,,,0.00,weatherlink.com 1.10,2013-09-26 17:22:00,
2013-09-26 12:37:00,77.1,61.0,29.80,SSW,209,0.0,0.0,57,0.00,,,0.00,weatherlink.com 1.10,2013-09-26 17:37:00,
2013-09-26 12:53:00,77.8,61.0,29.80,South,179,0.0,0.0,56,0.00,,,0.00,weatherlink.com 1.10,2013-09-26 17:53:00,
2013-09-26 13:08:00,78.7,61.0,29.80,South,176,0.0,0.0,54,0.00,,,0.00,weatherlink.com 1.10,2013-09-26 18:08:00,
2013-09-26 13:23:00,79.3,61.0,29.80,SW,218,0.0,0.0,53,0.00,,,0.00,weatherlink.com 1.10,2013-09-26 18:23:00,
2013-09-26 13:38:00,79.8,61.0,29.79,SSW,201,0.0,0.0,53,0.00,,,0.00,weatherlink.com 1.10,2013-09-26 18:38:00,
2013-09-26 13:53:00,80.6,62.0,29.78,SSW,196,0.0,0.0,53,0.00,,,0.00,weatherlink.com 1.10,2013-09-26 18:53:00,
2013-09-26 14:08:00,81.4,61.0,29.78,South,183,0.0,0.0,50,0.00,,,0.00,weatherlink.com 1.10,2013-09-26 19:08:00,
2013-09-26 14:23:00,81.5,60.0,29.77,South,188,0.0,0.0,49,0.00,,,0.00,weatherlink.com 1.10,2013-09-26 19:23:00,